Location: D�rnast
(49.6426°N, 11.9755°E)
Time: 13:20:43
(UTC+00:00)

Meteor 1-21 Rocket - Pass Details

Date: 24 January 2021
Orbit: 834 x 906 km, 81.2° (Epoch: 26 February)

Event Time Altitude Azimuth Distance (km) Brightness Sun altitude
Rises 17:47:05 0° 196° (SSW) 3,369 7.7 -18.0°
Reaches altitude 10° 17:49:29 10° 198° (SSW) 2,440 6.9 -18.4°
Maximum altitude 17:55:00 73° 284° (WNW) 879 4.4 -19.3°
Drops below altitude 10° 18:00:36 10° 9° (N) 2,478 6.5 -20.2°
Sets 18:03:03 0° 11° (NNE) 3,426 7.2 -20.6°
